When you browse on this site, cookies collect data to enhance your experience and personalize the content and advertising you see.
Visit our Privacy Policy to learn more. By continuing to use the site, you agree to this use of cookies and data.
  • In United Kingdom
  • List of Countries
  • For 7 days
  • Water Temperature
  • Satellite Maps
  • Weather Map
  • Weather Widgets
  • user-avatar
    Login

    Hourly Weather Vasyl'ky

    Today, 20 April, Saturday

    Time Temperature Precipitation Wind Pressure Humidity
    00:00 +5°C° 0 mm 3 mps 764 mmHg 54%
    01:00 +4°C° 0 mm 3 mps 764 mmHg 56%
    02:00 +4°C° 0 mm 3 mps 764 mmHg 58%
    03:00 +4°C° 0 mm 4 mps 764 mmHg 58%
    04:00 +3°C° 0 mm 4 mps 764 mmHg 58%
    05:00 +3°C° 0 mm 4 mps 764 mmHg 59%
    06:00 +5°C° 0 mm 5 mps 764 mmHg 54%
    07:00 +5°C° 0 mm 6 mps 764 mmHg 49%
    08:00 +8°C° 0 mm 7 mps 764 mmHg 43%
    09:00 +9°C° 0 mm 7 mps 764 mmHg 41%
    10:00 +10°C° 0 mm 7 mps 764 mmHg 38%
    11:00 +11°C° 0 mm 6 mps 764 mmHg 36%
    12:00 +11°C° 0 mm 6 mps 764 mmHg 35%
    13:00 +13°C° 0 mm 6 mps 764 mmHg 35%
    14:00 +13°C° 0 mm 5 mps 764 mmHg 33%
    15:00 +13°C° 0 mm 5 mps 764 mmHg 34%
    16:00 +13°C° 0 mm 5 mps 763 mmHg 35%
    17:00 +13°C° 0 mm 4 mps 763 mmHg 35%
    18:00 +11°C° 0 mm 3 mps 763 mmHg 39%
    19:00 +10°C° 0 mm 2 mps 763 mmHg 43%
    20:00 +8°C° 0 mm 2 mps 764 mmHg 47%
    21:00 +9°C° 0 mm 1 mps 764 mmHg 47%
    22:00 +8°C° 0 mm 1 mps 764 mmHg 48%
    23:00 +8°C° 0 mm 1 mps 764 mmHg 48%

    Tomorrow, 21 April, Sunday

    Time Temperature Precipitation Wind Pressure Humidity
    00:00 +8°C° 0 mm 1 mps 764 mmHg 50%
    01:00 +7°C° 0 mm 1 mps 763 mmHg 51%
    02:00 +7°C° 0 mm 1 mps 763 mmHg 53%
    03:00 +6°C° 0 mm 1 mps 763 mmHg 54%
    04:00 +6°C° 0 mm 1 mps 763 mmHg 55%
    05:00 +6°C° 0 mm 1 mps 763 mmHg 56%
    06:00 +8°C° 0 mm 1 mps 763 mmHg 52%
    07:00 +10°C° 0 mm 1 mps 764 mmHg 48%
    08:00 +12°C° 0 mm 2 mps 764 mmHg 45%
    09:00 +13°C° 0 mm 2 mps 764 mmHg 41%
    10:00 +13°C° 0 mm 3 mps 764 mmHg 37%
    11:00 +14°C° 0 mm 3 mps 764 mmHg 33%
    12:00 +14°C° 0 mm 3 mps 763 mmHg 33%
    13:00 +14°C° 0 mm 3 mps 763 mmHg 32%
    14:00 +16°C° 0 mm 3 mps 763 mmHg 32%
    15:00 +14°C° 0 mm 3 mps 763 mmHg 34%
    16:00 +15°C° 0 mm 2 mps 763 mmHg 37%
    17:00 +15°C° 0 mm 2 mps 763 mmHg 39%
    18:00 +14°C° 0 mm 2 mps 763 mmHg 42%
    19:00 +13°C° 0 mm 2 mps 763 mmHg 44%
    20:00 +12°C° 0 mm 2 mps 763 mmHg 46%
    21:00 +10°C° 0 mm 2 mps 763 mmHg 49%
    22:00 +10°C° 0 mm 1 mps 763 mmHg 52%
    23:00 +9°C° 0 mm 1 mps 763 mmHg 55%

    Day after tomorrow, 22 April, Monday

    Time Temperature Precipitation Wind Pressure Humidity
    00:00 +9°C° 0 mm 1 mps 763 mmHg 56%
    01:00 +9°C° 0 mm 1 mps 763 mmHg 56%
    02:00 +8°C° 0 mm 1 mps 763 mmHg 57%
    03:00 +7°C° 0 mm 2 mps 763 mmHg 57%
    04:00 +7°C° 0 mm 2 mps 764 mmHg 56%
    05:00 +7°C° 0 mm 3 mps 764 mmHg 56%
    06:00 +9°C° 0 mm 3 mps 764 mmHg 53%
    07:00 +11°C° 0 mm 4 mps 764 mmHg 50%
    08:00 +12°C° 0 mm 4 mps 764 mmHg 46%
    09:00 +13°C° 0 mm 5 mps 764 mmHg 42%
    10:00 +14°C° 0 mm 5 mps 764 mmHg 38%
    11:00 +15°C° 0 mm 6 mps 764 mmHg 34%
    12:00 +15°C° 0 mm 5 mps 764 mmHg 34%
    13:00 +15°C° 0 mm 5 mps 764 mmHg 34%
    14:00 +15°C° 0 mm 4 mps 764 mmHg 34%
    15:00 +15°C° 0 mm 4 mps 764 mmHg 36%
    16:00 +15°C° 0 mm 4 mps 764 mmHg 37%
    17:00 +16°C° 0 mm 3 mps 764 mmHg 38%
    18:00 +14°C° 0 mm 3 mps 765 mmHg 41%
    19:00 +13°C° 0 mm 3 mps 765 mmHg 44%
    20:00 +13°C° 0 mm 2 mps 765 mmHg 47%
    21:00 +13°C° 0 mm 2 mps 765 mmHg 49%
    22:00 +12°C° 0 mm 2 mps 766 mmHg 50%
    23:00 +12°C° 0 mm 2 mps 766 mmHg 52%

    23 April, Tuesday

    Time Temperature Precipitation Wind Pressure Humidity
    00:00 +10°C° 0 mm 2 mps 766 mmHg 54%
    01:00 +9°C° 0 mm 2 mps 766 mmHg 56%
    02:00 +9°C° 0 mm 2 mps 766 mmHg 58%
    03:00 +9°C° 0 mm 2 mps 766 mmHg 58%
    04:00 +9°C° 0 mm 2 mps 766 mmHg 58%
    05:00 +9°C° 0 mm 2 mps 766 mmHg 58%
    06:00 +10°C° 0 mm 3 mps 767 mmHg 54%
    07:00 +12°C° 0 mm 3 mps 767 mmHg 50%
    08:00 +13°C° 0 mm 3 mps 767 mmHg 46%
    09:00 +14°C° 0 mm 4 mps 767 mmHg 42%
    10:00 +15°C° 0 mm 4 mps 767 mmHg 37%
    11:00 +17°C° 0 mm 4 mps 767 mmHg 32%
    12:00 +17°C° 0 mm 4 mps 767 mmHg 33%
    13:00 +18°C° 0 mm 4 mps 767 mmHg 33%
    14:00 +18°C° 0 mm 4 mps 767 mmHg 34%
    15:00 +17°C° 0 mm 3 mps 767 mmHg 36%
    16:00 +17°C° 0 mm 3 mps 767 mmHg 39%
    17:00 +17°C° 0 mm 2 mps 767 mmHg 41%
    18:00 +15°C° 0 mm 2 mps 767 mmHg 44%
    19:00 +14°C° 0 mm 2 mps 767 mmHg 48%
    20:00 +12°C° 0 mm 2 mps 768 mmHg 51%
    21:00 +12°C° 0 mm 2 mps 768 mmHg 52%
    22:00 +10°C° 0 mm 2 mps 768 mmHg 53%
    23:00 +10°C° 0 mm 1 mps 768 mmHg 55%

    24 April, Wednesday

    Time Temperature Precipitation Wind Pressure Humidity
    00:00 +10°C° 0 mm 1 mps 768 mmHg 54%
    01:00 +8°C° 0 mm 0 mps 768 mmHg 54%
    02:00 +8°C° 0 mm 0 mps 768 mmHg 54%
    03:00 +8°C° 0 mm 0 mps 768 mmHg 55%
    04:00 +9°C° 0 mm 1 mps 768 mmHg 55%
    05:00 +8°C° 0 mm 1 mps 768 mmHg 56%
    06:00 +9°C° 0 mm 2 mps 769 mmHg 53%
    07:00 +12°C° 0 mm 2 mps 769 mmHg 50%
    08:00 +14°C° 0 mm 2 mps 769 mmHg 47%
    09:00 +15°C° 0 mm 2 mps 769 mmHg 44%
    10:00 +17°C° 0 mm 3 mps 769 mmHg 40%
    11:00 +18°C° 0 mm 3 mps 769 mmHg 37%
    12:00 +18°C° 0 mm 2 mps 769 mmHg 36%
    13:00 +19°C° 0 mm 2 mps 768 mmHg 35%
    14:00 +19°C° 0 mm 2 mps 768 mmHg 34%
    15:00 +19°C° 0 mm 2 mps 768 mmHg 35%
    16:00 +19°C° 0 mm 2 mps 768 mmHg 37%
    17:00 +20°C° 0 mm 1 mps 768 mmHg 38%
    18:00 +18°C° 0 mm 1 mps 768 mmHg 42%
    19:00 +15°C° 0 mm 1 mps 768 mmHg 47%
    20:00 +13°C° 0 mm 1 mps 768 mmHg 51%
    21:00 +13°C° 0 mm 1 mps 768 mmHg 53%
    22:00 +12°C° 0 mm 1 mps 768 mmHg 54%
    23:00 +11°C° 0 mm 1 mps 768 mmHg 55%

    25 April, Thursday

    Time Temperature Precipitation Wind Pressure Humidity
    00:00 +10°C° 0 mm 2 mps 768 mmHg 56%
    01:00 +10°C° 0 mm 2 mps 768 mmHg 57%
    02:00 +9°C° 0 mm 2 mps 768 mmHg 58%
    03:00 +9°C° 0 mm 2 mps 768 mmHg 59%
    04:00 +9°C° 0 mm 2 mps 768 mmHg 61%
    05:00 +9°C° 0 mm 2 mps 768 mmHg 62%
    06:00 +12°C° 0 mm 2 mps 768 mmHg 58%
    07:00 +14°C° 0 mm 2 mps 768 mmHg 54%
    08:00 +16°C° 0 mm 2 mps 768 mmHg 50%
    09:00 +18°C° 0 mm 2 mps 768 mmHg 45%
    10:00 +19°C° 0 mm 2 mps 768 mmHg 39%
    11:00 +21°C° 0 mm 1 mps 768 mmHg 34%
    12:00 +22°C° 0 mm 1 mps 768 mmHg 33%
    13:00 +23°C° 0 mm 1 mps 767 mmHg 32%
    14:00 +23°C° 0 mm 1 mps 767 mmHg 31%
    15:00 +23°C° 0 mm 1 mps 767 mmHg 32%
    16:00 +23°C° 0 mm 1 mps 767 mmHg 34%
    17:00 +21°C° 0 mm 2 mps 766 mmHg 36%
    18:00 +19°C° 0 mm 2 mps 766 mmHg 42%
    19:00 +17°C° 0 mm 2 mps 766 mmHg 48%
    20:00 +15°C° 0 mm 2 mps 766 mmHg 54%
    21:00 +15°C° 0 mm 2 mps 766 mmHg 54%
    22:00 +14°C° 0 mm 2 mps 766 mmHg 55%
    23:00 +13°C° 0 mm 1 mps 766 mmHg 56%
    Show more